FENGYUN 1C DEB *

Satellite information

Favourite Embed

Satellite Type and Status

DEBRISIN ORBIT

Key statistics

Satellite FENGYUN 1C DEB * at a glance.

Uptime

9666

Days in orbit

Revolutions

≈ 14.4

Per day

Orbit

SSO

Sun Synchronous Orbit

Inclination

99.3

Latest

Satellite identification and parameters

Extended collection of information and parameters for FENGYUN 1C DEB *.

Object identification

Identified? True

Debris? True

Object name: FENGYUN 1C DEB *

International designator: 1999-025FAB

Object number (NORAD): 47001

Object ID (CCSDS): 47001

Country: PEOPLES REPUBLIC OF CHINA (PRC)

Current information (Y/N): Y

RCS size: SMALL

Orbital parameters

Period: 100.155 minutes

Inclination: 99.3087 deg

SMA: 7144.031 km

Apoapsis: 804.264 km

Periapsis: 727.528 km

RAAN: 351.3504 deg

Eccentricy: 0.00537063

Argument of periapsis: 191.3998 deg

Mean anomaly: 168.5974 deg

Mean motion: 14.37764655 rev/day

Mean motion (dot): 0.00006184 rev/day2

B* drag term: 0.0020349886 1/REarth

Two-line elements (TLE)

Creation date: Oct. 26, 2025, 2:54 a.m.

Reference frame: TEME

Reference center: EARTH

Epoch: Oct. 24, 2025, 9:28 a.m. UTC

TLE line 0: 0 FENGYUN 1C DEB *

TLE line 1: 1 47001U 99025FAB 25297.39507450 .00006184 00000-0 20350-2 0 9996

TLE line 2: 2 47001 99.3087 351.3504 0053706 191.3998 168.5974 14.37764655732057

Live tracking on map

Real-time ground track for satellite FENGYUN 1C DEB *.

In-orbit conjunctions

A list of the most updated potential collisions computed for object FENGYUN 1C DEB *.

Target Orbit TCA Probability of collision Miss distance Type
SL-16 DEB LEO 2025-08-23 03:23:00 0.0001151768 71.0 (m) DEBRIS
CZ-6A DEB LEO 2024-12-11 23:18:53 0.0001447469 669.0 (m) DEBRIS

Associated space launch

Chinese polar orbiting meteorological satellite

FENGYUN 1C DEB * was lifted into orbit during the mission ‘Long March 4B | Feng Yun 1C’, on board a Long March 4B space rocket.

The launch took place on May 10, 1999, 1:33 a.m. from Launch Complex 7.

For more information about the launch, click the button.

Launch to space Long March 4B | Feng Yun 1C
Long March 4B | Feng Yun 1C

Agency: N/A

Status: Launch Successful

Launch date: May 10, 1999, 1:33 a.m. UTC

Rocket: Long March 4B

Launch pad: Launch Complex 7

Location: Taiyuan Satellite Launch Center, People's Republic of China

...

Latest news about this satellite

There are no fresh news available about this satellite. Check back as we update our databases every day.


Newsletter sign-up

Weekly statistics, charts and insights to help you stay on top of the space industry.